KC8YYF Weather Reports


time (UTC)temp
C
wind
direction
speed
KPH
gust
KPH
rain 1hr
cm
rain 24hr
cm
rain mn
cm
humidity
%
barometer
mb
20260508095627 5 90 0.0 0.0 0.00 0.00 0.00 90 1014.3
20260508095125 5 90 0.0 0.0 0.00 0.00 0.00 89 1014.3
20260508094621 5 90 0.0 0.0 0.00 0.00 0.00 90 1014.3
20260508094118 5 53 0.0 0.0 0.00 0.00 0.00 90 1014.4
20260508093615 5 53 0.0 4.8 0.00 0.00 0.00 90 1014.3
20260508093113 5 187 0.0 1.6 0.00 0.00 0.00 90 1014.3
20260508092610 5 32 0.0 1.6 0.00 0.00 0.00 89 1014.2
20260508092108 5 254 0.0 1.6 0.00 0.00 0.00 88 1014.3
20260508091605 5 90 0.0 0.0 0.00 0.00 0.00 87 1014.3
20260508091102 6 236 0.0 3.2 0.00 0.00 0.00 87 1014.1
20260508090600 6 66 0.0 0.0 0.00 0.00 0.00 85 1014.5
20260508090056 6 66 0.0 1.6 0.00 0.00 0.00 85 1014.5
20260508085553 6 0 0.0 0.0 0.00 0.00 0.00 84 1014.4
20260508085050 6 0 0.0 1.6 0.00 0.00 0.00 85 1014.3
20260508084547 6 0 0.0 1.6 0.00 0.00 0.00 87 1014.2
20260508084044 6 0 3.2 3.2 0.00 0.00 0.00 84 1014.5
20260508083541 6 123 4.8 4.8 0.00 0.00 0.00 86 1014.5
20260508083038 6 111 1.6 3.2 0.00 0.00 0.00 88 1014.4
20260508082534 6 74 0.0 0.0 0.00 0.00 0.00 86 1014.2
20260508082032 6 48 0.0 3.2 0.00 0.00 0.00 85 1014.2
20260508081529 6 90 0.0 3.2 0.00 0.00 0.00 86 1014.2
20260508081025 6 29 0.0 3.2 0.00 0.00 0.00 87 1014.6
20260508080523 6 5 0.0 1.6 0.00 0.00 0.00 88 1014.4
20260508080020 6 90 0.0 0.0 0.00 0.00 0.00 88 1014.4
20260508075516 6 95 3.2 3.2 0.00 0.00 0.00 88 1014.7
20260508075014 6 105 0.0 3.2 0.00 0.00 0.00 87 1014.6
20260508074512 6 90 3.2 3.2 0.00 0.00 0.00 87 1014.7
20260508074008 6 97 1.6 3.2 0.00 0.00 0.00 87 1014.8
20260508073505 6 80 3.2 3.2 0.00 0.00 0.00 87 1014.9
20260508073003 6 102 1.6 3.2 0.00 0.00 0.00 87 1014.8
20260508072459 6 61 3.2 3.2 0.00 0.00 0.00 87 1014.8
20260508071956 6 77 3.2 3.2 0.00 0.00 0.00 85 1014.7
20260508071454 6 82 3.2 4.8 0.00 0.00 0.00 82 1014.6
20260508070951 6 90 0.0 0.0 0.00 0.00 0.00 80 1014.6
20260508070449 6 7 0.0 0.0 0.00 0.00 0.00 81 1014.8
20260508065947 6 83 1.6 3.2 0.00 0.00 0.00 83 1014.5
20260508065445 6 81 3.2 3.2 0.00 0.00 0.00 82 1014.9
20260508064943 6 75 0.0 3.2 0.00 0.00 0.00 84 1014.9
20260508064440 6 66 0.0 3.2 0.00 0.00 0.00 84 1014.8
20260508063937 6 90 3.2 3.2 0.00 0.00 0.00 85 1014.7
20260508063435 6 84 1.6 3.2 0.00 0.00 0.00 85 1014.6
20260508062932 6 90 1.6 3.2 0.00 0.00 0.00 85 1014.5
20260508062430 6 90 0.0 3.2 0.00 0.00 0.00 83 1014.6
20260508061927 6 90 0.0 0.0 0.00 0.00 0.00 82 1014.6
20260508061424 6 90 0.0 3.2 0.00 0.00 0.00 82 1014.7
20260508060920 7 90 1.6 1.6 0.00 0.00 0.00 80 1014.5
20260508060418 6 69 0.0 0.0 0.00 0.00 0.00 80 1014.6
20260508055914 6 74 0.0 0.0 0.00 0.00 0.00 80 1014.7
20260508055411 6 74 0.0 0.0 0.00 0.00 0.00 81 1014.7
20260508054907 6 278 1.6 3.2 0.00 0.00 0.00 78 1014.9
20260508054404 6 285 0.0 1.6 0.00 0.00 0.00 76 1014.7
20260508053901 6 270 0.0 1.6 0.00 0.00 0.00 74 1015.0
20260508053358 6 270 0.0 1.6 0.00 0.00 0.00 74 1014.6
20260508052856 6 286 0.0 0.0 0.00 0.00 0.00 79 1015.0
20260508052353 6 286 0.0 0.0 0.00 0.00 0.00 80 1014.9
20260508051849 6 286 0.0 0.0 0.00 0.00 0.00 79 1014.8
20260508051345 6 286 0.0 0.0 0.00 0.00 0.00 79 1014.7
20260508050841 6 294 1.6 1.6 0.00 0.00 0.00 74 1014.8
20260508050339 6 270 0.0 1.6 0.00 0.00 0.00 75 1014.6
20260508045834 6 106 0.0 0.0 0.00 0.00 0.00 74 1015.0
20260508045332 6 106 0.0 0.0 0.00 0.00 0.00 74 1015.0
20260508044829 6 106 0.0 0.0 0.00 0.00 0.00 77 1015.2
20260508044325 6 106 0.0 0.0 0.00 0.00 0.00 74 1015.0
20260508043822 7 106 0.0 0.0 0.00 0.00 0.00 76 1014.9
20260508043319 7 106 0.0 0.0 0.00 0.00 0.00 74 1015.1
20260508042816 7 106 0.0 0.0 0.00 0.00 0.00 78 1015.1
20260508042314 7 106 0.0 0.0 0.00 0.00 0.00 77 1015.0
20260508041810 7 106 0.0 0.0 0.00 0.00 0.00 82 1015.0
20260508041307 7 82 0.0 0.0 0.00 0.00 0.00 78 1015.0
20260508040803 6 82 0.0 3.2 0.00 0.00 0.00 80 1015.1
20260508040301 7 90 3.2 3.2 0.00 0.00 0.00 80 1015.2
20260508035758 7 90 1.6 1.6 0.00 0.00 0.00 79 1014.5
20260508035255 7 90 0.0 0.0 0.00 0.00 0.00 79 1014.8
20260508034751 7 90 0.0 0.0 0.00 0.00 0.00 77 1014.5
20260508034249 7 90 0.0 0.0 0.00 0.00 0.00 73 1014.6
20260508033746 7 90 0.0 0.0 0.00 0.00 0.00 81 1014.7
20260508033244 7 90 0.0 0.0 0.00 0.00 0.00 80 1014.7
20260508032741 7 90 0.0 0.0 0.00 0.00 0.00 77 1014.9
20260508032238 7 90 0.0 0.0 0.00 0.00 0.00 77 1015.0
20260508031735 7 90 0.0 0.0 0.00 0.00 0.00 78 1014.7
20260508031231 7 90 0.0 0.0 0.00 0.00 0.00 76 1015.0
20260508030728 7 90 0.0 0.0 0.00 0.00 0.00 74 1014.8
20260508030225 7 90 0.0 0.0 0.00 0.00 0.00 71 1014.8
20260508025722 7 90 0.0 0.0 0.00 0.00 0.00 76 1014.7
20260508025219 7 90 0.0 0.0 0.00 0.00 0.00 73 1014.6
20260508024714 7 90 0.0 0.0 0.00 0.00 0.00 73 1014.9
20260508024212 7 90 0.0 0.0 0.00 0.00 0.00 74 1014.9
20260508023708 7 90 0.0 0.0 0.00 0.00 0.00 75 1014.9
20260508023206 7 90 0.0 0.0 0.00 0.00 0.00 75 1014.9
20260508022701 7 90 0.0 0.0 0.00 0.00 0.00 70 1015.0
20260508022159 7 90 0.0 0.0 0.00 0.00 0.00 63 1014.9
20260508021655 7 90 0.0 0.0 0.00 0.00 0.00 66 1014.8
20260508021150 7 90 0.0 0.0 0.00 0.00 0.00 65 1014.8
20260508020648 7 90 0.0 0.0 0.00 0.00 0.00 71 1014.8
20260508020146 7 90 0.0 0.0 0.00 0.00 0.00 66 1014.7
20260508015643 7 90 0.0 0.0 0.00 0.00 0.00 64 1014.7
20260508015140 7 90 0.0 0.0 0.00 0.00 0.00 73 1014.8
20260508014636 7 90 0.0 0.0 0.00 0.00 0.00 64 1014.9
20260508014132 7 90 0.0 0.0 0.00 0.00 0.00 69 1014.7
20260508013629 7 90 0.0 0.0 0.00 0.00 0.00 73 1014.7
20260508013126 8 90 0.0 0.0 0.00 0.00 0.00 70 1014.6
20260508012623 8 90 0.0 0.0 0.00 0.00 0.00 68 1014.5
20260508012120 8 90 0.0 0.0 0.00 0.00 0.00 64 1014.5
20260508011619 8 90 0.0 0.0 0.00 0.00 0.00 61 1014.3
20260508011115 8 90 0.0 0.0 0.00 0.00 0.00 66 1014.3
20260508010612 8 90 0.0 0.0 0.00 0.00 0.00 62 1014.0
20260508010110 8 90 0.0 0.0 0.00 0.00 0.00 63 1014.4
20260508005606 8 90 0.0 0.0 0.00 0.00 0.00 67 1014.3
20260508005103 8 90 0.0 0.0 0.00 0.00 0.00 61 1014.7
20260508004559 9 90 0.0 0.0 0.00 0.00 0.00 59 1014.0
20260508004056 9 90 0.0 0.0 0.00 0.00 0.00 64 1014.2
20260508003552 10 90 0.0 0.0 0.00 0.00 0.00 63 1014.2
20260508003050 10 90 0.0 0.0 0.00 0.00 0.00 65 1014.2
20260508002546 10 90 0.0 0.0 0.00 0.00 0.00 69 1014.0
20260508002044 10 90 0.0 1.6 0.00 0.00 0.00 61 1014.0
20260508001539 11 90 0.0 3.2 0.00 0.00 0.00 53 1013.9
20260508001035 11 105 0.0 3.2 0.00 0.00 0.00 52 1014.0
20260508000531 11 110 0.0 4.8 0.00 0.00 0.00 52 1013.9
20260508000029 11 145 1.6 4.8 0.00 0.00 0.00 48 1014.0
20260507235525 12 75 1.6 4.8 0.00 0.00 0.00 48 1013.9
20260507235023 12 111 0.0 9.7 0.00 0.00 0.00 45 1013.6
20260507234519 12 69 1.6 4.8 0.00 0.00 0.00 48 1013.7
20260507234016 12 99 0.0 3.2 0.00 0.00 0.00 48 1013.6
20260507233512 12 81 0.0 9.7 0.00 0.00 0.00 43 1013.6
20260507233012 12 90 0.0 6.4 0.00 0.00 0.00 44 1013.5
20260507232507 12 52 4.8 6.4 0.00 0.00 0.00 45 1013.5
20260507232005 12 45 4.8 6.4 0.00 0.00 0.00 44 1013.6
20260507231501 12 111 0.0 8.0 0.00 0.00 0.00 43 1013.7
20260507230958 12 140 0.0 6.4 0.00 0.00 0.00 43 1013.7
20260507230455 12 111 1.6 4.8 0.00 0.00 0.00 45 1013.7
20260507225950 12 49 4.8 4.8 0.00 0.00 0.00 46 1013.7
20260507225446 12 112 3.2 3.2 0.00 0.00 0.00 46 1013.8
20260507224943 12 59 4.8 4.8 0.00 0.00 0.00 47 1013.7
20260507224439 12 61 4.8 8.0 0.00 0.00 0.00 43 1014.0
20260507223936 12 45 6.4 6.4 0.00 0.00 0.00 44 1013.7
20260507223432 12 54 4.8 8.0 0.00 0.00 0.00 44 1013.8
20260507222929 13 117 0.0 11.3 0.00 0.00 0.00 46 1013.7
20260507222426 12 140 3.2 4.8 0.00 0.00 0.00 45 1013.9
20260507221922 12 45 4.8 9.7 0.00 0.00 0.00 44 1014.0
20260507221419 13 90 3.2 14.5 0.00 0.00 0.00 43 1014.0
20260507220915 14 19 3.2 8.0 0.00 0.00 0.00 43 1013.7
20260507220413 13 9 3.2 11.3 0.00 0.00 0.00 44 1013.6
20260507215909 14 80 3.2 6.4 0.00 0.00 0.00 45 1013.6
20260507215406 13 46 6.4 9.7 0.00 0.00 0.00 42 1013.4
20260507214903 15 69 8.0 12.9 0.00 0.00 0.00 42 1013.4
20260507214401 15 74 4.8 8.0 0.00 0.00 0.00 41 1013.4
20260507213856 15 90 3.2 9.7 0.00 0.00 0.00 43 1013.6
20260507213353 14 45 4.8 9.7 0.00 0.00 0.00 44 1013.2
20260507212850 15 100 4.8 12.9 0.00 0.00 0.00 41 1013.0
20260507212346 15 78 8.0 17.7 0.00 0.00 0.00 42 1013.0
20260507211842 15 90 3.2 8.0 0.00 0.00 0.00 44 1013.0
20260507211339 14 139 8.0 17.7 0.00 0.00 0.00 42 1012.8
20260507210836 15 45 4.8 14.5 0.00 0.00 0.00 44 1012.7
20260507210333 14 94 3.2 8.0 0.00 0.00 0.00 47 1012.7
20260507205829 13 95 3.2 9.7 0.00 0.00 0.00 46 1012.8
20260507205327 15 79 9.7 14.5 0.00 0.00 0.00 43 1012.6
20260507204822 15 47 4.8 12.9 0.00 0.00 0.00 46 1012.7
20260507204320 15 139 14.5 14.5 0.00 0.00 0.00 41 1012.7
20260507203818 16 357 4.8 11.3 0.00 0.00 0.00 42 1012.8
20260507203315 15 119 4.8 16.1 0.00 0.00 0.00 44 1012.8
20260507202811 15 147 6.4 11.3 0.00 0.00 0.00 42 1012.8
20260507202308 15 0 6.4 9.7 0.00 0.00 0.00 44 1012.6
20260507201803 15 79 6.4 11.3 0.00 0.00 0.00 43 1012.5
20260507201259 14 148 0.0 16.1 0.00 0.00 0.00 42 1012.5
20260507200756 13 42 4.8 11.3 0.00 0.00 0.00 44 1012.6
20260507200252 14 123 3.2 19.3 0.00 0.00 0.00 45 1012.6
20260507195748 14 43 8.0 16.1 0.00 0.00 0.00 39 1012.8
20260507195245 14 0 3.2 12.9 0.00 0.00 0.00 39 1012.7
20260507194743 14 90 0.0 19.3 0.00 0.00 0.00 40 1012.8
20260507194238 15 97 4.8 8.0 0.00 0.00 0.00 39 1012.8
20260507193735 15 75 9.7 14.5 0.00 0.00 0.00 40 1012.8
20260507193232 15 6 4.8 11.3 0.00 0.00 0.00 37 1012.6
20260507192728 15 109 8.0 14.5 0.00 0.00 0.00 41 1012.7
20260507192225 14 6 4.8 8.0 0.00 0.00 0.00 40 1012.7
20260507191721 14 101 4.8 6.4 0.00 0.00 0.00 42 1013.0
20260507191218 14 145 1.6 14.5 0.00 0.00 0.00 43 1012.9
20260507190715 15 129 6.4 6.4 0.00 0.00 0.00 44 1013.0
20260507190214 15 78 4.8 12.9 0.00 0.00 0.00 41 1013.0
20260507185712 13 24 3.2 17.7 0.00 0.00 0.00 44 1013.0
20260507185208 13 50 9.7 12.9 0.00 0.00 0.00 43 1012.9
20260507184706 15 105 3.2 8.0 0.00 0.00 0.00 47 1012.9
20260507184204 15 100 3.2 8.0 0.00 0.00 0.00 45 1013.0
20260507183700 14 74 6.4 6.4 0.00 0.00 0.00 46 1012.8
20260507183157 13 106 4.8 8.0 0.00 0.00 0.00 45 1013.1
20260507182654 15 90 3.2 9.7 0.00 0.00 0.00 40 1013.1
20260507182149 15 86 4.8 6.4 0.00 0.00 0.00 43 1012.9
20260507181646 15 90 1.6 8.0 0.00 0.00 0.00 41 1012.9
20260507181143 15 93 6.4 6.4 0.00 0.00 0.00 42 1013.0
20260507180639 15 86 3.2 12.9 0.00 0.00 0.00 46 1013.0
20260507180136 15 77 8.0 9.7 0.00 0.00 0.00 42 1013.1
20260507175632 15 10 3.2 14.5 0.00 0.00 0.00 47 1013.2
20260507175129 13 145 6.4 16.1 0.00 0.00 0.00 42 1013.5
20260507174626 15 83 6.4 6.4 0.00 0.00 0.00 45 1013.5
20260507174124 15 78 6.4 8.0 0.00 0.00 0.00 44 1013.1
20260507173621 14 90 4.8 8.0 0.00 0.00 0.00 44 1013.2
20260507173118 13 124 3.2 9.7 0.00 0.00 0.00 47 1013.6
20260507172614 13 67 9.7 12.9 0.00 0.00 0.00 42 1013.6
20260507172112 13 73 4.8 9.7 0.00 0.00 0.00 47 1013.5
20260507171606 15 18 1.6 9.7 0.00 0.00 0.00 49 1013.6
20260507171104 13 85 3.2 17.7 0.00 0.00 0.00 41 1013.7
20260507170601 15 101 8.0 11.3 0.00 0.00 0.00 41 1013.5
20260507170058 15 10 4.8 6.4 0.00 0.00 0.00 43 1013.5
20260507165553 15 82 1.6 8.0 0.00 0.00 0.00 43 1013.9
20260507165050 14 148 3.2 12.9 0.00 0.00 0.00 47 1013.9
20260507164547 14 49 0.0 8.0 0.00 0.00 0.00 42 1013.9
20260507164043 13 36 4.8 11.3 0.00 0.00 0.00 43 1014.0
20260507163540 13 77 1.6 4.8 0.00 0.00 0.00 42 1013.7
20260507163033 13 45 4.8 11.3 0.00 0.00 0.00 41 1013.8
20260507162533 13 45 6.4 8.0 0.00 0.00 0.00 45 1014.0
20260507162030 13 97 4.8 11.3 0.00 0.00 0.00 42 1013.7
20260507161526 13 90 4.8 16.1 0.00 0.00 0.00 44 1013.9
20260507161023 13 58 4.8 9.7 0.00 0.00 0.00 44 1013.8
20260507160519 13 96 8.0 12.9 0.00 0.00 0.00 47 1013.8
20260507160016 13 90 0.0 8.0 0.00 0.00 0.00 48 1013.7
20260507155511 12 74 11.3 14.5 0.00 0.00 0.00 44 1013.7
20260507155009 12 100 4.8 14.5 0.00 0.00 0.00 43 1013.9
20260507154505 12 128 3.2 11.3 0.00 0.00 0.00 45 1013.8
20260507154002 13 64 6.4 8.0 0.00 0.00 0.00 43 1013.8
20260507153459 13 80 6.4 11.3 0.00 0.00 0.00 47 1013.9
20260507152955 12 43 9.7 11.3 0.00 0.00 0.00 45 1013.9
20260507152451 12 82 0.0 11.3 0.00 0.00 0.00 45 1014.0
20260507151947 12 94 6.4 9.7 0.00 0.00 0.00 44 1014.0
20260507151444 12 52 4.8 9.7 0.00 0.00 0.00 44 1014.0
20260507150941 13 108 3.2 8.0 0.00 0.00 0.00 45 1013.8
20260507150438 12 132 6.4 8.0 0.00 0.00 0.00 51 1014.0
20260507145934 12 59 6.4 6.4 0.00 0.00 0.00 47 1014.0
20260507145430 12 105 0.0 8.0 0.00 0.00 0.00 48 1014.2
20260507144927 12 94 4.8 6.4 0.00 0.00 0.00 48 1014.0
20260507144424 12 105 1.6 4.8 0.00 0.00 0.00 51 1014.3
20260507143921 12 57 4.8 6.4 0.00 0.00 0.00 49 1014.1
20260507143418 11 103 3.2 8.0 0.00 0.00 0.00 52 1014.3
20260507142915 12 93 6.4 9.7 0.00 0.00 0.00 55 1014.2
20260507142410 12 339 3.2 8.0 0.00 0.00 0.00 51 1014.0
20260507141908 12 100 4.8 8.0 0.00 0.00 0.00 52 1014.3
20260507141404 12 90 1.6 4.8 0.00 0.00 0.00 57 1014.4
20260507140901 11 77 4.8 6.4 0.00 0.00 0.00 58 1014.5
20260507140357 11 45 4.8 9.7 0.00 0.00 0.00 56 1014.4
20260507135855 11 28 8.0 9.7 0.00 0.00 0.00 57 1014.6
20260507135352 12 120 0.0 3.2 0.00 0.00 0.00 67 1014.7
20260507134850 11 120 3.2 4.8 0.00 0.00 0.00 69 1014.7
20260507134345 10 60 1.6 6.4 0.00 0.00 0.00 71 1014.7
20260507133841 11 82 1.6 4.8 0.00 0.00 0.00 71 1014.6
20260507133337 10 90 0.0 6.4 0.00 0.00 0.00 72 1014.9
20260507132836 10 65 3.2 4.8 0.00 0.00 0.00 73 1014.9
20260507132332 10 106 0.0 4.8 0.00 0.00 0.00 76 1014.8
20260507131829 9 96 1.6 6.4 0.00 0.00 0.00 76 1014.7
20260507131325 10 8 0.0 3.2 0.00 0.00 0.00 77 1015.0
20260507130822 8 53 3.2 4.8 0.00 0.00 0.00 79 1014.8
20260507130320 8 90 0.0 3.2 0.00 0.00 0.00 81 1014.8
20260507125819 7 115 3.2 4.8 0.00 0.00 0.00 84 1014.7
20260507125315 7 15 0.0 4.8 0.00 0.00 0.00 89 1014.8
20260507124813 6 45 3.2 3.2 0.00 0.00 0.00 91 1014.5
20260507124309 6 84 1.6 3.2 0.00 0.00 0.00 92 1014.9
20260507123808 5 111 1.6 3.2 0.00 0.00 0.00 94 1014.8
20260507123305 5 98 1.6 4.8 0.00 0.00 0.00 95 1014.7
20260507122801 5 106 0.0 3.2 0.00 0.00 0.00 96 1015.0
20260507122256 5 97 1.6 3.2 0.00 0.00 0.00 97 1014.9
20260507121752 5 98 1.6 1.6 0.00 0.00 0.00 97 1014.8
20260507121248 4 71 1.6 3.2 0.00 0.00 0.00 97 1014.9
20260507120744 4 106 0.0 1.6 0.00 0.00 0.00 98 1014.6
20260507120241 4 105 1.6 3.2 0.00 0.00 0.00 97 1014.8
20260507115737 4 105 0.0 3.2 0.00 0.00 0.00 97 1014.8
20260507115233 3 96 3.2 3.2 0.00 0.00 0.00 97 1014.8
20260507114729 3 90 1.6 3.2 0.00 0.00 0.00 97 1014.6
20260507114227 3 105 0.0 1.6 0.00 0.00 0.00 97 1014.7
20260507113724 3 90 0.0 0.0 0.00 0.00 0.00 97 1014.7
20260507113221 3 97 0.0 1.6 0.00 0.00 0.00 97 1014.7
20260507112718 3 77 0.0 1.6 0.00 0.00 0.00 97 1014.6
20260507112215 3 98 0.0 1.6 0.00 0.00 0.00 97 1014.6
20260507111713 3 114 0.0 1.6 0.00 0.00 0.00 97 1014.5
20260507111210 3 90 0.0 0.0 0.00 0.00 0.00 97 1014.5
20260507110705 3 90 1.6 1.6 0.00 0.00 0.00 97 1014.4
20260507110202 3 90 0.0 3.2 0.00 0.00 0.00 97 1014.5
20260507105659 3 83 1.6 1.6 0.00 0.00 0.00 96 1014.5
20260507105155 3 98 1.6 1.6 0.00 0.00 0.00 96 1014.3
20260507104653 3 90 0.0 1.6 0.00 0.00 0.00 96 1014.4
20260507104149 3 82 0.0 1.6 0.00 0.00 0.00 96 1014.3
20260507103645 3 90 0.0 0.0 0.00 0.00 0.00 96 1014.4
20260507103142 3 90 1.6 1.6 0.00 0.00 0.00 96 1014.1
20260507102638 3 106 0.0 1.6 0.00 0.00 0.00 96 1014.6
20260507102134 3 90 0.0 1.6 0.00 0.00 0.00 96 1014.3
20260507101630 3 114 0.0 1.6 0.00 0.00 0.00 96 1014.2
20260507101126 3 75 0.0 0.0 0.00 0.00 0.00 96 1014.5
20260507100624 3 97 0.0 3.2 0.00 0.00 0.00 96 1014.3
20260507100122 4 66 0.0 1.6 0.00 0.00 0.00 96 1014.0